Location: Possagno
(45.8500°N, 11.8667°E)
Time: 01:18:12
(UTC+00:00)

Cosmos 2263 Rocket - Pass Details

Date: 07 June 2020
Orbit: 825 x 847 km, 71.0° (Epoch: 05 July)

Event Time Altitude Azimuth Distance (km) Brightness Sun altitude
Rises 01:03:25 0° 331° (NNW) 3,389 5.8 -16.8°
Reaches altitude 10° 01:05:53 10° 328° (NNW) 2,447 5.0 -16.6°
Maximum altitude 01:11:25 64° 249° (WSW) 917 2.2 -16.2°
Enters shadow 01:15:45 17° 171° (S) 2,000 3.7 -15.8°
